Tracking 19575 objects as of 20-Feb-2019
HD Live streaming from Space Station
objects crossing your sky now

METEOR 2-5 DEB

Track METEOR 2-5 DEB now!
10-day predictions


NORAD ID: 29291
Int'l Code: 1979-095Q
Perigee: 788.8 km
Apogee: 811.8 km
Inclination: 81.2 °
Period: 100.7 minutes
Semi major axis: 7171 km
RCS: 0.0146 m2 (small)
Launch date: October 31, 1979
Source: Commonwealth of Independent States (former USSR) (CIS)
Launch site: PLESETSK MISSILE AND SPACE COMPLEX (PKMTR)

Note: This is SATELLITE DEBRIS
aabbcc
Your satellite tracking list
Your tracking list is empty




NASA's NSSDC Master Catalog

Two Line Element Set (TLE):
1 29291U 79095Q   19050.22875823  .00001329  00000-0  51417-3 0  9991
2 29291  81.1885 232.5016 0016043 327.3700  32.6488 14.29585463652057
Source of the keplerian elements: AFSPC